• In Hungary
  • List of Countries
  • For 7 days
  • Water Temperature
  • Satellite Maps
  • Weather Map
  • News
  • Weather Widgets
  • user-avatar
    Login

    Hourly Weather Razdolnoe

    Today, 23 June, Saturday

    Time Temperature Precipitation Wind Pressure Humidity
    00:00 +20°C° 0 mm 1 mps 740 mmHg 78%
    01:00 +19°C° 0 mm 1 mps 740 mmHg 79%
    02:00 +19°C° 0 mm 1 mps 740 mmHg 79%
    03:00 +19°C° 0 mm 1 mps 741 mmHg 80%
    04:00 +20°C° 0 mm 1 mps 741 mmHg 78%
    05:00 +20°C° 0 mm 1 mps 741 mmHg 75%
    06:00 +21°C° 0 mm 1 mps 741 mmHg 73%
    07:00 +23°C° 0 mm 1 mps 741 mmHg 67%
    08:00 +24°C° 0 mm 1 mps 741 mmHg 62%
    09:00 +26°C° 0 mm 1 mps 741 mmHg 56%
    10:00 +27°C° 0 mm 2 mps 741 mmHg 53%
    11:00 +28°C° 0 mm 2 mps 741 mmHg 49%
    12:00 +29°C° 0 mm 2 mps 741 mmHg 46%
    13:00 +29°C° 0 mm 2 mps 741 mmHg 45%
    14:00 +29°C° 0 mm 2 mps 741 mmHg 43%
    15:00 +30°C° 0 mm 2 mps 741 mmHg 42%
    16:00 +29°C° 0 mm 2 mps 740 mmHg 45%
    17:00 +29°C° 0 mm 2 mps 740 mmHg 48%
    18:00 +29°C° 0 mm 2 mps 740 mmHg 52%
    19:00 +27°C° 0 mm 2 mps 740 mmHg 54%
    20:00 +25°C° 0 mm 2 mps 740 mmHg 57%
    21:00 +23°C° 0 mm 2 mps 740 mmHg 59%
    22:00 +21°C° 0 mm 2 mps 740 mmHg 60%
    23:00 +20°C° 0 mm 2 mps 740 mmHg 61%

    Tomorrow, 24 June, Sunday

    Time Temperature Precipitation Wind Pressure Humidity
    00:00 +20°C° 0 mm 2 mps 740 mmHg 62%
    01:00 +19°C° 0 mm 2 mps 740 mmHg 63%
    02:00 +19°C° 0 mm 2 mps 740 mmHg 63%
    03:00 +18°C° 0 mm 2 mps 740 mmHg 64%
    04:00 +19°C° 0 mm 3 mps 740 mmHg 65%
    05:00 +19°C° 0 mm 3 mps 740 mmHg 66%
    06:00 +20°C° 0 mm 3 mps 740 mmHg 68%
    07:00 +22°C° 0 mm 4 mps 740 mmHg 62%
    08:00 +25°C° 0 mm 4 mps 740 mmHg 56%
    09:00 +27°C° 0 mm 5 mps 741 mmHg 50%
    10:00 +28°C° 0 mm 5 mps 740 mmHg 47%
    11:00 +29°C° 0 mm 5 mps 740 mmHg 44%
    12:00 +30°C° 0 mm 6 mps 740 mmHg 41%
    13:00 +30°C° 0 mm 5 mps 740 mmHg 40%
    14:00 +32°C° 0 mm 5 mps 740 mmHg 38%
    15:00 +32°C° 0 mm 5 mps 740 mmHg 37%
    16:00 +32°C° 0 mm 4 mps 740 mmHg 41%
    17:00 +30°C° 0 mm 4 mps 740 mmHg 45%
    18:00 +29°C° 0 mm 3 mps 740 mmHg 48%
    19:00 +28°C° 0 mm 3 mps 740 mmHg 50%
    20:00 +26°C° 0 mm 3 mps 740 mmHg 52%
    21:00 +24°C° 0 mm 3 mps 740 mmHg 54%
    22:00 +23°C° 0 mm 2 mps 740 mmHg 55%
    23:00 +23°C° 0 mm 2 mps 741 mmHg 56%

    Day after tomorrow, 25 June, Monday

    Time Temperature Precipitation Wind Pressure Humidity
    00:00 +22°C° 0 mm 1 mps 741 mmHg 57%
    01:00 +22°C° 0 mm 1 mps 741 mmHg 58%
    02:00 +21°C° 0 mm 1 mps 741 mmHg 58%
    03:00 +21°C° 0 mm 1 mps 741 mmHg 59%
    04:00 +22°C° 0 mm 1 mps 741 mmHg 60%
    05:00 +22°C° 0 mm 1 mps 742 mmHg 60%
    06:00 +23°C° 0 mm 1 mps 742 mmHg 61%
    07:00 +25°C° 0 mm 1 mps 742 mmHg 57%
    08:00 +26°C° 0 mm 2 mps 742 mmHg 53%
    09:00 +28°C° 0 mm 2 mps 742 mmHg 48%
    10:00 +29°C° 0 mm 2 mps 743 mmHg 45%
    11:00 +30°C° 0 mm 2 mps 743 mmHg 42%
    12:00 +32°C° 0 mm 2 mps 743 mmHg 39%
    13:00 +32°C° 0 mm 2 mps 743 mmHg 39%
    14:00 +32°C° 0 mm 2 mps 743 mmHg 38%
    15:00 +34°C° 0 mm 2 mps 742 mmHg 38%
    16:00 +31°C° 0 mm 2 mps 742 mmHg 46%
    17:00 +29°C° 0 mm 3 mps 742 mmHg 54%
    18:00 +28°C° 0 mm 4 mps 742 mmHg 63%
    19:00 +27°C° 0 mm 3 mps 742 mmHg 67%
    20:00 +25°C° 0 mm 3 mps 743 mmHg 72%
    21:00 +24°C° 0 mm 3 mps 743 mmHg 77%
    22:00 +24°C° 0 mm 3 mps 743 mmHg 77%
    23:00 +22°C° 0 mm 3 mps 743 mmHg 77%

    26 June, Tuesday

    Time Temperature Precipitation Wind Pressure Humidity
    00:00 +22°C° 0 mm 3 mps 743 mmHg 76%
    01:00 +22°C° 0 mm 3 mps 743 mmHg 77%
    02:00 +22°C° 0 mm 3 mps 743 mmHg 78%
    03:00 +21°C° 0 mm 3 mps 743 mmHg 79%
    04:00 +21°C° 0 mm 3 mps 743 mmHg 80%
    05:00 +21°C° 0 mm 3 mps 743 mmHg 80%
    06:00 +21°C° 0 mm 3 mps 743 mmHg 80%
    07:00 +22°C° 0 mm 4 mps 743 mmHg 78%
    08:00 +23°C° 0 mm 4 mps 743 mmHg 75%
    09:00 +23°C° 0 mm 4 mps 743 mmHg 73%
    10:00 +26°C° 0 mm 4 mps 743 mmHg 68%
    11:00 +27°C° 0 mm 4 mps 743 mmHg 63%
    12:00 +29°C° 0 mm 4 mps 743 mmHg 58%
    13:00 +29°C° 0 mm 3 mps 742 mmHg 54%
    14:00 +30°C° 0 mm 2 mps 742 mmHg 51%
    15:00 +31°C° 0 mm 2 mps 742 mmHg 48%
    16:00 +31°C° 0 mm 2 mps 742 mmHg 50%
    17:00 +31°C° 0 mm 2 mps 742 mmHg 52%
    18:00 +31°C° 0 mm 2 mps 742 mmHg 54%
    19:00 +29°C° 0 mm 2 mps 742 mmHg 57%
    20:00 +27°C° 0 mm 2 mps 742 mmHg 61%
    21:00 +26°C° 0 mm 2 mps 742 mmHg 65%
    22:00 +25°C° 0 mm 3 mps 742 mmHg 66%
    23:00 +25°C° 0 mm 3 mps 742 mmHg 68%

    27 June, Wednesday

    Time Temperature Precipitation Wind Pressure Humidity
    00:00 +24°C° 0 mm 3 mps 741 mmHg 70%
    01:00 +24°C° 0 mm 3 mps 741 mmHg 71%
    02:00 +22°C° 0 mm 3 mps 741 mmHg 71%
    03:00 +22°C° 0 mm 3 mps 741 mmHg 72%
    04:00 +22°C° 0.6 mm 3 mps 741 mmHg 73%
    05:00 +24°C° 0.6 mm 3 mps 741 mmHg 73%
    06:00 +24°C° 0.6 mm 3 mps 741 mmHg 74%
    07:00 +25°C° 0.6 mm 3 mps 741 mmHg 73%
    08:00 +25°C° 0.6 mm 2 mps 741 mmHg 72%
    09:00 +26°C° 0.6 mm 2 mps 742 mmHg 71%
    10:00 +26°C° 0.3 mm 3 mps 741 mmHg 71%
    11:00 +27°C° 0.3 mm 3 mps 741 mmHg 71%
    12:00 +27°C° 0.3 mm 4 mps 741 mmHg 71%
    13:00 +28°C° 0 mm 4 mps 741 mmHg 67%
    14:00 +29°C° 0 mm 5 mps 740 mmHg 62%
    15:00 +30°C° 0 mm 5 mps 740 mmHg 58%
    16:00 +29°C° 3 mm 5 mps 740 mmHg 64%
    17:00 +28°C° 3 mm 4 mps 740 mmHg 69%
    18:00 +26°C° 3 mm 3 mps 740 mmHg 74%
    19:00 +25°C° 2.9 mm 3 mps 740 mmHg 77%
    20:00 +24°C° 2.9 mm 3 mps 740 mmHg 80%
    21:00 +22°C° 2.9 mm 4 mps 740 mmHg 83%
    22:00 +22°C° 1.7 mm 4 mps 740 mmHg 84%
    23:00 +22°C° 1.7 mm 4 mps 740 mmHg 85%

    28 June, Thursday

    Time Temperature Precipitation Wind Pressure Humidity
    00:00 +22°C° 1.7 mm 4 mps 739 mmHg 85%
    01:00 +22°C° 0.5 mm 4 mps 739 mmHg 86%
    02:00 +21°C° 0.5 mm 4 mps 739 mmHg 87%
    03:00 +21°C° 0.5 mm 4 mps 739 mmHg 88%
    04:00 +21°C° 1 mm 4 mps 739 mmHg 87%
    05:00 +22°C° 1 mm 4 mps 739 mmHg 86%
    06:00 +22°C° 1 mm 5 mps 739 mmHg 85%
    07:00 +23°C° 0.1 mm 5 mps 739 mmHg 83%
    08:00 +23°C° 0.1 mm 5 mps 739 mmHg 81%
    09:00 +24°C° 0.1 mm 6 mps 739 mmHg 78%
    10:00 +27°C° 0 mm 6 mps 739 mmHg 71%
    11:00 +29°C° 0 mm 6 mps 738 mmHg 63%
    12:00 +32°C° 0 mm 7 mps 738 mmHg 55%
    13:00 +33°C° 0 mm 6 mps 738 mmHg 53%
    14:00 +33°C° 0 mm 6 mps 738 mmHg 51%
    15:00 +34°C° 0 mm 6 mps 737 mmHg 49%
    16:00 +33°C° 0 mm 5 mps 737 mmHg 52%
    17:00 +32°C° 0 mm 5 mps 737 mmHg 54%
    18:00 +30°C° 0 mm 4 mps 737 mmHg 57%
    19:00 +29°C° 0.7 mm 4 mps 737 mmHg 60%
    20:00 +27°C° 0.7 mm 4 mps 737 mmHg 63%
    21:00 +26°C° 0.7 mm 5 mps 736 mmHg 66%
    22:00 +26°C° 0.9 mm 5 mps 736 mmHg 66%
    23:00 +25°C° 0.9 mm 5 mps 736 mmHg 67%
    Show more